ANIK G1

Last updated on Tue Oct 15 2024 00:02:39 GMT+0000 (Coordinated Universal Time)

1 39127U 13014A 24288.20952376 -.00000076 00000+0 00000+0 0 9991 2 39127 0.0579 83.9165 0002835 144.6648 122.8243 1.00271448 42126
UTC large
Height (km)
Speed (km/s)
/
Latitude / Longitude
Inclination (degrees)
Orbital Period (minutes)
Azimuth
Elevation
Range (km)
Doppler Factor

Next 0 passes for location: London (51.5072 / 0.1276)

Sorry there are no passes over London.